Back to catalog

ONEWEB-0634

AliveCommunicationsPO
NORAD 56075·PAYLOAD·🇬🇧 United Kingdom

Launched Mar 26, 2023 from Satish Dhawan Space Centre

Loading…

Next Passes (next 24 hours)

TLE

FreshSource: CelesTrak SupGP

Epoch: Sep 14, 2026, 21:38 UTC

1 56075C 23043AF  26257.90153194  .00001600  00000+0  42541-2 0  2570
2 56075  87.8975 241.3392 0001765  91.5229 292.2266 13.15543989    18

Track ONEWEB-0634 in real time with AllMySat

Download on the App Store